Tillbaka till svenska Fidonet
English   Information   Debug  
FILM   0/18
FNEWS_PUBLISH   4983
FN_SYSOP   42232
FN_SYSOP_OLD1   71952
FTP_FIDO   0/2
FTSC_PUBLIC   0/13976
FUNNY   0/4886
GENEALOGY.EUR   0/71
GET_INFO   105
GOLDED   266/408
HAM   5301/16713
HOLYSMOKE   0/6791
HOT_SITES   0/1
HTMLEDIT   0/71
HUB203   466
HUB_100   264
HUB_400   39
HUMOR   0/29
IC   0/2851
INTERNET   0/424
INTERUSER   0/3
IP_CONNECT   719
JAMNNTPD   0/233
JAMTLAND   0/47
KATTY_KORNER   0/41
LAN   0/16
LINUX-USER   0/19
LINUXHELP   0/1155
LINUX   0/22385
LINUX_BBS   0/957
mail   18.68
mail_fore_ok   249
MENSA   0/341
MODERATOR   0/102
MONTE   0/992
MOSCOW_OKLAHOMA   0/1245
MUFFIN   0/783
MUSIC   0/321
N203_STAT   938
N203_SYSCHAT   313
NET203   321
NET204   69
NET_DEV   0/10
NORD.ADMIN   0/101
NORD.CHAT   0/2572
NORD.FIDONET   189
NORD.HARDWARE   0/28
NORD.KULTUR   0/114
NORD.PROG   0/32
NORD.SOFTWARE   0/88
NORD.TEKNIK   0/58
NORD   0/453
OCCULT_CHAT   0/93
OS2BBS   0/787
OS2DOSBBS   0/580
OS2HW   0/42
OS2INET   0/37
OS2LAN   0/134
OS2PROG   0/36
OS2REXX   0/113
OS2USER-L   207
OS2   0/4831
OSDEBATE   0/18996
PASCAL   0/490
PERL   0/457
PHP   0/45
POINTS   0/405
POLITICS   10931/29554
POL_INC   0/14731
PSION   103
R20_ADMIN   1133
R20_AMATORRADIO   0/2
R20_BEST_OF_FIDONET   16
R20_CHAT   0/897
R20_DEPP   0/3
R20_DEV   400
R20_ECHO2   1889
R20_ECHOPRES   0/35
R20_ESTAT   0/719
R20_FIDONETPROG...
...RAM.MYPOINT
  0/2
R20_FIDONETPROGRAM   0/22
R20_FIDONET   0/248
R20_FILEFIND   0/24
R20_FILEFOUND   0/22
R20_HIFI   0/3
R20_INFO2   3781
R20_INTERNET   0/12940
R20_INTRESSE   0/60
R20_INTR_KOM   0/99
R20_KANDIDAT.CHAT   42
R20_KANDIDAT   28
R20_KOM_DEV   112
R20_KONTROLL   0/13360
R20_KORSET   0/18
R20_LOKALTRAFIK   0/24
R20_MODERATOR   0/1852
R20_NC   76
R20_NET200   245
R20_NETWORK.OTH...
...ERNETS
  0/13
R20_OPERATIVSYS...
...TEM.LINUX
  0/44
R20_PROGRAMVAROR   0/1
R20_REC2NEC   534
R20_SFOSM   0/341
R20_SF   0/108
R20_SPRAK.ENGLISH   0/1
R20_SQUISH   107
R20_TEST   2
R20_WORST_OF_FIDONET   20
RAR   0/9
RA_MULTI   106
RA_UTIL   0/162
REGCON.EUR   0/2069
REGCON   0/13
SCIENCE   0/1206
SF   0/239
SHAREWARE_SUPPORT   0/5146
SHAREWRE   0/14
SIMPSONS   0/169
STATS_OLD1   0/2539.065
STATS_OLD2   0/2530
STATS_OLD3   0/2395.095
STATS_OLD4   0/1692.25
SURVIVOR   0/495
SYSOPS_CORNER   0/3
SYSOP   0/84
TAGLINES   0/112
TEAMOS2   0/4530
TECH   0/2617
TEST.444   0/105
TRAPDOOR   0/19
TREK   0/755
TUB   0/290
UFO   8/40
UNIX   0/1316
USA_EURLINK   0/102
USR_MODEMS   0/1
VATICAN   0/2740
VIETNAM_VETS   0/14
VIRUS   0/378
VIRUS_INFO   0/201
VISUAL_BASIC   0/473
WHITEHOUSE   0/5187
WIN2000   0/101
WIN32   0/30
WIN95   0/4291
WIN95_OLD1   0/70272
WINDOWS   0/1517
WWB_SYSOP   0/419
WWB_TECH   472/810
ZCC-PUBLIC   0/1
ZEC   4

 
4DOS   0/134
ABORTION   0/7
ALASKA_CHAT   0/506
ALLFIX_FILE   0/1313
ALLFIX_FILE_OLD1   0/7997
ALT_DOS   0/152
AMATEUR_RADIO   0/1039
AMIGASALE   0/14
AMIGA   0/331
AMIGA_INT   0/1
AMIGA_PROG   0/20
AMIGA_SYSOP   0/26
ANIME   0/15
ARGUS   0/924
ASCII_ART   0/340
ASIAN_LINK   0/651
ASTRONOMY   0/417
AUDIO   0/92
AUTOMOBILE_RACING   0/105
BABYLON5   0/17862
BAG   135
BATPOWER   158/361
BBBS.ENGLISH   0/382
BBSLAW   0/109
BBS_ADS   0/5290
BBS_INTERNET   0/507
BIBLE   0/3563
BINKD   0/1119
BINKLEY   0/215
BLUEWAVE   0/2173
CABLE_MODEMS   0/25
CBM   0/46
CDRECORD   0/66
CDROM   0/20
CLASSIC_COMPUTER   0/378
COMICS   0/15
CONSPRCY   0/899
COOKING   42003
COOKING_OLD1   0/24719
COOKING_OLD2   0/40862
COOKING_OLD3   0/37489
COOKING_OLD4   14187/35496
COOKING_OLD5   9370
C_ECHO   0/189
C_PLUSPLUS   0/31
DIRTY_DOZEN   0/201
DOORGAMES   0/2333
DOS_INTERNET   0/196
duplikat   6102
ECHOLIST   18139/18295
EC_SUPPORT   0/318
ELECTRONICS   0/359
ELEKTRONIK.GER   1534
ENET.LINGUISTIC   0/13
ENET.POLITICS   0/4
ENET.SOFT   0/11701
ENET.SYSOP   34332
ENET.TALKS   0/32
ENGLISH_TUTOR   0/2000
EVOLUTION   0/1335
FDECHO   0/217
FDN_ANNOUNCE   6098/7068
FIDONEWS   25122
FIDONEWS_OLD1   0/49742
FIDONEWS_OLD2   0/35949
FIDONEWS_OLD3   0/30874
FIDONEWS_OLD4   0/37224
FIDO_SYSOP   12973
FIDO_UTIL   0/180
FILEFIND   0/209
FILEGATE   0/212
Möte HAM, 16713 texter
 lista första sista föregående nästa
Text 2268, 787 rader
Skriven 2008-04-18 06:00:26 av Amsat List (1:323/120.0)
Ärende: [keps]  orb08108.amsa
=============================
[keps]  orb08108.amsa

Return-Path: <keps-bounces@amsat.org>
X-Rcpt: craig.healy@chowda.com
X-UIDL: 1208511711.11334

SB KEPS @ AMSAT  $ORB08108.O
Orbital Elements  08108.OSCAR

HR AMSAT ORBITAL ELEMENTS FOR OSCAR SATELLITES
FROM WA5QGD FORT WORTH,TX April 17, 2008
Send Subscribe/unsubscribe to KEPS at 
http://www.amsat.org/mailman/listinfo/keps
BID: ORB08108.O
TO ALL RADIO AMATEURS BT

Satellite: AO-07
Catalog number: 07530
Epoch time:      08108.72050569
Element set:     154
Inclination:      101.4715 deg
RA of node:       142.2280 deg
Eccentricity:    0.0011837
Arg of perigee:   021.9484 deg
Mean anomaly:     338.2085 deg
Mean motion:   12.53573753 rev/day
Decay rate:       -2.7e-07 rev/day^2
Epoch rev:           52940
Checksum:              280

Satellite: AO-10
Catalog number: 14129
Epoch time:      08108.53908122
Element set:     496
Inclination:      025.9256 deg
RA of node:       219.8988 deg
Eccentricity:    0.6006147
Arg of perigee:   116.1824 deg
Mean anomaly:     316.1114 deg
Mean motion:   02.05868097 rev/day
Decay rate:       1.49e-06 rev/day^2
Epoch rev:           18685
Checksum:              319

Satellite: UO-11
Catalog number: 14781
Epoch time:      08108.52615265
Element set:     646
Inclination:      098.1607 deg
RA of node:       141.6374 deg
Eccentricity:    0.0007963
Arg of perigee:   268.2221 deg
Mean anomaly:     091.8102 deg
Mean motion:   14.79634377 rev/day
Decay rate:       1.76e-06 rev/day^2
Epoch rev:           29488
Checksum:              320

Satellite: RS-15
Catalog number: 23439
Epoch time:      08107.81645627
Element set:    0161
Inclination:      064.8161 deg
RA of node:       234.2858 deg
Eccentricity:    0.0149447
Arg of perigee:   134.5393 deg
Mean anomaly:     226.7849 deg
Mean motion:   11.27552043 rev/day
Decay rate:       -3.9e-07 rev/day^2
Epoch rev:           54804
Checksum:              318

Satellite: FO-29
Catalog number: 24278
Epoch time:      08108.85073034
Element set:     752
Inclination:      098.5872 deg
RA of node:       033.0274 deg
Eccentricity:    0.0351264
Arg of perigee:   011.8505 deg
Mean anomaly:     349.0637 deg
Mean motion:   13.52936996 rev/day
Decay rate:       -1.8e-07 rev/day^2
Epoch rev:           57623
Checksum:              323

Satellite: SO-33
Catalog number: 25509
Epoch time:      08108.79732176
Element set:     177
Inclination:      031.4327 deg
RA of node:       297.8154 deg
Eccentricity:    0.0354953
Arg of perigee:   219.2258 deg
Mean anomaly:     138.2197 deg
Mean motion:   14.28212191 rev/day
Decay rate:        7.0e-08 rev/day^2
Epoch rev:           49497
Checksum:              329

Satellite: AO-40
Catalog number: 26609
Epoch time:      08108.30068952
Element set:      43
Inclination:      007.5547 deg
RA of node:       087.4810 deg
Eccentricity:    0.7915516
Arg of perigee:   072.2316 deg
Mean anomaly:     353.6918 deg
Mean motion:   01.25583289 rev/day
Decay rate:      -1.74e-06 rev/day^2
Epoch rev:            3427
Checksum:              312

Satellite: VO-52
Catalog number: 28650
Epoch time:      08107.74025901
Element set:     906
Inclination:      097.7935 deg
RA of node:       176.0253 deg
Eccentricity:    0.0026782
Arg of perigee:   343.7918 deg
Mean anomaly:     016.2448 deg
Mean motion:   14.81447655 rev/day
Decay rate:       -9.5e-07 rev/day^2
Epoch rev:           15950
Checksum:              327

Satellite: PO-63
Catalog number: 29712
Epoch time:      08108.72031394
Element set:     366
Inclination:      097.8798 deg
RA of node:       168.0318 deg
Eccentricity:    0.0013361
Arg of perigee:   214.1965 deg
Mean anomaly:     145.8384 deg
Mean motion:   14.80106608 rev/day
Decay rate:       5.46e-06 rev/day^2
Epoch rev:            6852
Checksum:              321

/EX
SB KEPS @ AMSAT  $ORB08108.D
Orbital Elements  08108.MICROS

HR AMSAT ORBITAL ELEMENTS FOR THE MICROSATS
FROM WA5QGD FORT WORTH,TX April 17, 2008
Send Subscribe/unsubscribe to KEPS at 
http://www.amsat.org/mailman/listinfo/keps
BID: ORB08108.D
TO ALL RADIO AMATEURS BT

Satellite: AO-16
Catalog number: 20439
Epoch time:      08108.55229171
Element set:     299
Inclination:      098.2264 deg
RA of node:       091.7279 deg
Eccentricity:    0.0011418
Arg of perigee:   002.3953 deg
Mean anomaly:     357.7294 deg
Mean motion:   14.31790685 rev/day
Decay rate:        4.0e-07 rev/day^2
Epoch rev:           95224
Checksum:              315

Satellite: LO-19
Catalog number: 20442
Epoch time:      08108.53979087
Element set:     225
Inclination:      098.1987 deg
RA of node:       100.4323 deg
Eccentricity:    0.0011837
Arg of perigee:   000.4268 deg
Mean anomaly:     359.6918 deg
Mean motion:   14.32028948 rev/day
Decay rate:       -4.0e-07 rev/day^2
Epoch rev:           95239
Checksum:              317

Satellite: AO-27
Catalog number: 22825
Epoch time:      08108.57425779
Element set:     947
Inclination:      098.3787 deg
RA of node:       070.8860 deg
Eccentricity:    0.0009402
Arg of perigee:   081.0318 deg
Mean anomaly:     279.1910 deg
Mean motion:   14.29236539 rev/day
Decay rate:        5.4e-07 rev/day^2
Epoch rev:           75911
Checksum:              334

Satellite: IO-26
Catalog number: 22826
Epoch time:      08107.79888711
Element set:    0651
Inclination:      098.3710 deg
RA of node:       071.0785 deg
Eccentricity:    0.0009928
Arg of perigee:   078.5745 deg
Mean anomaly:     281.6555 deg
Mean motion:   14.29484427 rev/day
Decay rate:        1.4e-07 rev/day^2
Epoch rev:           75909
Checksum:              348

